Weather Roundup
Issued by NWS

Home | Current Version | Previous Version | Text Only | Print | Product List | Glossary On
Versions: 1 2 3 4 5 6 7 8 9 10 11 12 13 14 15 16 17 18 19 20 21 22 23 24 25 26 27 28 29 30 31 32 33 34 35 36 37 38 39 40 41 42 43 44 45 46 47 48 49 50
000
NZUS93 KARX 271759
HRRWXR

CURRENT HOURLY OBSERVATIONS ACROSS
MUCH OF THE UPPER MISSISSIPPI VALLEY
NATIONAL WEATHER SERVICE LA CROSSE WI
100 PM CDT WED AUG 27 2014


...SOUTHEAST MINNESOTA...


CITY           SKY/WX    TMP DP  RH WIND       PRES   REMARKS
ROCHESTER      FAIR      71  57  61 E5        30.22F
ROCHESTER/MAYO FAIR      71  52  51 CALM      30.21F
WINONA         FAIR      72  55  56 CALM      30.19F
AUSTIN         FAIR      70  57  64 SE3       30.20F
ALBERT LEA     FAIR      70  55  60 E7        30.21F
DODGE CENTER   FAIR      72  57  60 E3        30.22S
PRESTON        FAIR      69  61  76 CALM      30.22F
OWATONNA       FAIR      72  55  56 CALM      30.21F
FARIBAULT      FAIR      73  54  49 E5        30.21F
$$

...ELSEWHERE IN MINNESOTA...


CITY           SKY/WX    TMP DP  RH WIND       PRES   REMARKS
MINNEAPOLIS    PTSUNNY   73  53  49 CALM      30.20F
INTNL FALLS    FAIR      65  51  60 CALM      30.18F
DULUTH         FAIR      69  47  45 W10       30.22S
RED WING       FAIR      73  55  53 SW6       30.19F
REDWOOD FALLS  FAIR      74  57  55 S8        30.19F
MANKATO        FAIR      70  55  60 SE6       30.20F
WORTHINGTON    FAIR      66  59  77 SE8       30.21F
FAIRMONT       FAIR      66  55  68 SE6       30.21S
$$

...SOUTHWEST WISCONSIN...


CITY           SKY/WX    TMP DP  RH WIND       PRES   REMARKS
LA CROSSE      FAIR      75  56  51 VRB3      30.18F
PRAIRIE DU CHI FAIR      73  54  50 CALM      30.17F
BOSCOBEL       FAIR      77  57  50 VRB3      30.19F
LONE ROCK      NOT AVBL
PLATTEVILLE    FAIR      75  56  52 CALM      30.20F
FORT MC COY    FAIR      74  54  48 NW6       30.20F
VIROQUA        FAIR      71  56  58 E3        30.21F
WIS DELLS      FAIR      72  53  51 E5        30.20F
$$

...ELSEWHERE IN WISCONSIN...


CITY           SKY/WX    TMP DP  RH WIND       PRES   REMARKS
MILWAUKEE      MOSUNNY   72  63  73 E13       30.17F
MADISON        PTSUNNY   76  58  53 N9        30.18F
GREEN BAY      PTSUNNY   70  56  61 NW5       30.19S
EAU CLAIRE     FAIR      70  53  54 VRB3      30.20F
BLACK RVR FLS  FAIR      73  52  46 CALM      30.19F
MEDFORD        FAIR      66  51  57 W7        30.23F
WAUSAU         MOSUNNY   70  54  56 NW9       30.19F
WIS RAPIDS     FAIR      73  54  51 VRB6      30.21F
MARSHFIELD     FAIR      72  56  57 NW8       30.20F
RICE LAKE      FAIR      68  49  50 W3        30.24F
$$

...NORTHEAST IOWA...


CITY           SKY/WX    TMP DP  RH WIND       PRES   REMARKS
WATERLOO       PTSUNNY   74  57  55 SE5       30.19R
DUBUQUE        FAIR      74  54  49 CALM      30.20S
DECORAH        NOT AVBL
MASON CITY     FAIR      72  58  61 S5        30.22S
CHARLES CITY   FAIR      72  57  60 NE3       30.21S
OELWEIN        FAIR      72  59  64 CALM      30.21S
$$

...ELSEWHERE IN IOWA...


CITY           SKY/WX    TMP DP  RH WIND       PRES   REMARKS
DES MOINES     LGT RAIN  74  65  73 CALM      30.17F
IOWA CITY      CLOUDY    74  64  71 CALM      30.19F
FORT DODGE     PTSUNNY   70  63  78 E5        30.20F
MARSHALLTOWN   CLOUDY    72  62  71 E6        30.18F
CEDAR RAPIDS   PTSUNNY   73  63  70 CALM      30.18F
$$

...NORTHERN ILLINOIS...


CITY           SKY/WX    TMP DP  RH WIND       PRES   REMARKS
CHICAGO-OHARE  PTSUNNY   80  57  45 VRB6      30.14S
DUPAGE         MOSUNNY   82  60  47 N5        30.14F
CHICAGO-MIDWAY PTSUNNY   81  61  50 NE7       30.14S
MOLINE         FAIR      78  63  59 VRB3      30.16S
ROCKFORD       PTSUNNY   80  58  46 VRB3      30.17S
STERLING       FAIR      81  64  57 NE5       30.16S
PEORIA         FAIR      85  68  56 NE3       30.13S
$$

NOTE: "FAIR" INDICATES FEW OR NO CLOUDS BELOW 12,000 FEET WITH NO
SIGNIFICANT WEATHER AND/OR OBSTRUCTIONS TO VISIBILITY. WIND
SPEEDS ARE IN MILES-PER-HOUR.



USA.gov is the U.S. government's official web portal to all federal, state and local government web resources and services.